Weather in Borki

Russia / Belgorod Oblast     50°08′45″N   37°53′08″E
temp.,
°C
wind,
m/s
gust,
m/s
humid.,
%
clouds,
%
prec.,
mm/h
press.,
hPa
HPBL,
m
14 april, wed
wed1400:00+11ssw258581 0.0 1022248
03:00+10ese118749 0.1 102123
06:00+9nne1189100 0.0 102011
09:00+12ene128199 0.6 1019243
12:00+16nw1163100 0.2 10171104
15:00+17s2351100 1.1 10161167
18:00+15sw2363100 0.9 1015162
21:00+12nnw2379100 1.1 101668
15 april, thu
thu1500:00+12e2468100 0.0 101591
03:00+11se2273100 0.0 101419
06:00+10sse2482100 0.1 101493
09:00+13s346877 0.5 1014429
12:00+15ssw565585 0.9 10141376
15:00+17ssw564654 1.0 10131904
18:00+15s355598 0.0 1013411
21:00+11sse2681100 0.3 1014283
16 april, fri
fri1600:00+10s258598 0.4 1014227
03:00+8s23935 0.5 101459
06:00+7s24942 0.0 1015110
09:00+11s45694 0.0 1016749
12:00+14s675135 0.0 10161687
15:00+11ssw6860100 0.0 1017930
18:00+11sw58584 0.0 1017794
21:00+7sw23725 0.0 101859
17 april, sat
sat1700:00+6sw11796 0.0 101911
03:00+5se008598 0.0 102010
06:00+5w1185100 0.0 102018
09:00+9w346674 0.2 1018542
12:00+12w235499 0.1 10211527
15:00+12nw2256100 0.3 10221270
18:00+11n115878 0.0 1022101
21:00+8w117091 0.0 102311
18 april, sun
sun1800:00+6nnw228020 0.0 102420
03:00+6wnw018663 0.0 102410
06:00+6ne018791 0.0 102410
09:00+8nne1280100 0.0 1025195
12:00+11ene336687 0.0 1025894
15:00+15ene565086 0.1 10241757
18:00+13ene46585 0.1 1024847
21:00+9ene36807 0.1 1025116